2021/10/20 23:28:04+0000,-38.31,-47.27,-30.82,-52.58,-52.88,-56.07
2021/10/20 23:28:56+0000,-40.05,-48.06,-31.47,-51.25,-52.38,-55.95
2021/10/20 23:29:49+0000,-38.44,-48.26,-31.34,-52.80,-52.10,-55.96
2021/10/20 23:30:41+0000,-37.86,-47.88,-31.35,-50.04,-52.36,-55.81
2021/10/20 23:31:39+0000,-39.10,-47.62,-31.42,-51.06,-53.02,-55.73
2021/10/20 23:32:32+0000,-39.51,-49.45,-31.74,-51.43,-51.77,-56.15
2021/10/20 23:33:24+0000,-38.50,-47.45,-31.64,-51.85,-52.56,-55.81
2021/10/20 23:34:16+0000,-38.88,-46.76,-30.95,-49.42,-52.73,-55.76
2021/10/20 23:35:08+0000,-38.83,-47.79,-31.08,-51.93,-53.12,-55.81
2021/10/20 23:36:00+0000,-39.35,-47.01,-31.03,-51.33,-52.65,-55.93
2021/10/20 23:36:52+0000,-39.41,-47.44,-31.70,-51.97,-52.36,-55.96
2021/10/20 23:37:44+0000,-39.44,-47.89,-31.30,-49.60,-52.75,-55.58
2021/10/20 23:38:36+0000,-39.48,-48.00,-31.45,-50.93,-52.55,-55.92
2021/10/20 23:39:28+0000,-38.90,-46.74,-31.43,-52.01,-52.41,-55.60
2021/10/20 23:40:20+0000,-38.96,-47.96,-31.44,-53.20,-52.81,-55.63
2021/10/20 23:41:24+0000,-38.68,-47.14,-31.49,-52.15,-52.64,-55.85
2021/10/20 23:42:16+0000,-40.20,-46.99,-30.76,-52.95,-52.66,-56.29
2021/10/20 23:43:08+0000,-38.99,-46.54,-31.17,-51.73,-52.08,-56.58
2021/10/20 23:44:00+0000,-39.33,-46.33,-31.35,-51.76,-51.58,-56.26
2021/10/20 23:44:52+0000,-39.29,-47.74,-31.63,-50.47,-51.49,-55.91
2021/10/20 23:45:44+0000,-40.29,-46.65,-31.71,-50.38,-51.98,-55.80
2021/10/20 23:46:36+0000,-40.31,-47.60,-31.41,-50.52,-51.69,-55.29
2021/10/20 23:47:28+0000,-39.73,-46.36,-31.85,-51.30,-50.94,-55.85
2021/10/20 23:48:20+0000,-39.94,-46.84,-31.90,-51.26,-51.28,-55.33
2021/10/20 23:49:12+0000,-39.47,-46.91,-31.58,-50.34,-50.86,-55.57
2021/10/20 23:50:04+0000,-39.91,-47.86,-31.85,-52.41,-52.23,-55.94
2021/10/20 23:51:13+0000,-38.47,-46.38,-32.45,-50.61,-52.00,-55.96
2021/10/20 23:52:05+0000,-39.13,-47.24,-31.72,-52.23,-51.25,-56.16
2021/10/20 23:52:57+0000,-40.06,-47.10,-31.99,-11.30,-51.28,-55.23
2021/10/20 23:53:49+0000,-38.31,-46.46,-31.54,-52.11,-51.89,-55.98
2021/10/20 23:54:41+0000,-39.41,-46.18,-32.39,-51.39,-52.49,-55.72
2021/10/20 23:55:33+0000,-38.59,-46.63,-32.20,-12.16,-51.30,-55.50
2021/10/20 23:56:25+0000,-39.47,-48.04,-32.28,-50.86,-51.68,-55.42
2021/10/20 23:57:17+0000,-38.46,-46.87,-31.99,-50.78,-51.70,-55.36
2021/10/20 23:58:09+0000,-38.44,-46.88,-31.68,-51.59,-50.32,-55.41
2021/10/20 23:59:01+0000,-39.99,-46.62,-31.57,-50.75,-50.62,-55.56
2021/10/20 23:59:54+0000,-38.89,-47.42,-32.65,-50.50,-51.68,-55.93
2021/10/21 00:00:51+0000,-38.03,-45.57,-32.49,-52.76,-50.84,-56.27
2021/10/21 00:01:56+0000,-38.61,-48.02,-31.93,-51.16,-51.29,-55.40
2021/10/21 00:02:48+0000,-38.66,-45.41,-32.03,-51.92,-12.46,-55.53
2021/10/21 00:03:40+0000,-39.01,-45.81,-32.12,-50.98,-51.50,-55.72
2021/10/21 00:04:32+0000,-37.63,-46.37,-31.52,-52.23,-51.35,-55.27
2021/10/21 00:05:25+0000,-38.75,-46.74,-31.55,-50.79,-51.71,-55.28
2021/10/21 00:06:17+0000,-39.08,-47.25,-31.72,-49.91,-51.77,-55.60
2021/10/21 00:07:09+0000,-38.84,-47.42,-31.78,-51.11,-51.21,-55.31
2021/10/21 00:08:01+0000,-38.00,-48.08,-31.80,-50.19,-51.83,-56.42
2021/10/21 00:08:53+0000,-37.97,-48.96,-31.41,-51.20,-51.58,-55.64
2021/10/21 00:09:45+0000,-39.25,-47.21,-31.95,-50.34,-11.79,-55.64
2021/10/21 00:10:37+0000,-38.72,-47.53,-31.04,-50.35,-51.09,-55.90
2021/10/21 00:11:41+0000,-39.12,-47.11,-31.74,-50.51,-51.41,-55.38
2021/10/21 00:12:33+0000,-37.13,-46.20,-32.40,-52.60,-51.66,-55.86
2021/10/21 00:13:25+0000,-38.81,-46.47,-31.46,-50.71,-52.13,-55.86
2021/10/21 00:14:17+0000,-39.33,-46.55,-32.00,-49.35,-11.49,-55.67
2021/10/21 00:15:09+0000,-39.44,-47.09,-31.61,-49.01,-51.59,-53.84
2021/10/21 00:16:01+0000,-38.50,-47.14,-31.35,-50.93,-51.48,-54.10
2021/10/21 00:16:53+0000,-38.95,-47.52,-31.17,-50.72,-51.16,-53.86
2021/10/21 00:17:45+0000,-37.22,-46.35,-32.33,-50.68,-10.89,-54.86
2021/10/21 00:18:37+0000,-37.79,-47.77,-30.79,-50.25,-51.95,-54.01
2021/10/21 00:19:29+0000,-37.73,-47.00,-32.42,-51.01,-53.11,-53.75
2021/10/21 00:20:21+0000,-37.22,-47.29,-32.43,-51.48,-52.53,-54.76
2021/10/21 00:21:21+0000,-38.49,-46.47,-32.12,-51.13,-51.77,-53.60
2021/10/21 00:22:13+0000,-38.56,-46.61,-31.86,-50.41,-51.69,-53.37
2021/10/21 00:23:05+0000,-38.28,-46.69,-31.37,-52.00,-51.48,-54.18
2021/10/21 00:23:57+0000,-38.90,-46.10,-31.95,-51.35,-51.62,-53.32
2021/10/21 00:24:49+0000,-37.54,-47.05,-31.92,-52.35,-52.34,-54.39
2021/10/21 00:25:41+0000,-37.92,-45.50,-31.59,-50.37,-52.06,-53.79
2021/10/21 00:26:33+0000,-36.03,-46.36,-31.23,-52.89,-51.70,-54.52
2021/10/21 00:27:25+0000,-37.32,-46.53,-32.26,-52.02,-51.59,-53.82
2021/10/21 00:28:17+0000,-37.85,-45.57,-32.24,-50.72,-51.76,-54.07
2021/10/21 00:29:09+0000,-37.31,-46.85,-32.04,-52.16,-51.83,-54.02
2021/10/21 00:30:02+0000,-38.26,-49.86,-31.65,-51.75,-52.09,-53.87
2021/10/21 00:31:06+0000,-37.88,-50.83,-31.54,-49.64,-52.58,-54.01
2021/10/21 00:31:58+0000,-36.61,-46.48,-32.35,-51.85,-52.10,-53.46
2021/10/21 00:32:50+0000,-37.46,-45.68,-32.05,-53.26,-51.90,-53.74
2021/10/21 00:33:42+0000,-38.59,-46.37,-31.58,-50.49,-51.41,-54.30
2021/10/21 00:34:34+0000,-39.05,-45.95,-31.91,-51.36,-51.81,-54.24
2021/10/21 00:35:26+0000,-38.36,-46.63,-31.85,-50.13,-51.20,-54.40
2021/10/21 00:36:18+0000,-36.96,-46.31,-31.62,-50.97,-52.16,-54.50
2021/10/21 00:37:10+0000,-37.69,-42.83,-31.29,-50.21,-52.61,-54.57
2021/10/21 00:38:02+0000,-37.79,-47.16,-31.54,-51.25,-52.26,-54.66
2021/10/21 00:38:54+0000,-37.86,-46.64,-31.65,-50.95,-52.05,-54.96
2021/10/21 00:39:47+0000,-37.63,-45.64,-31.61,-49.09,-52.21,-55.28
2021/10/21 00:40:39+0000,-37.94,-46.11,-31.71,-50.22,-52.09,-54.21
2021/10/21 00:41:48+0000,-37.60,-47.02,-31.94,-50.87,-52.71,-55.24
2021/10/21 00:42:40+0000,-38.61,-49.02,-32.38,-50.59,-52.95,-54.41
2021/10/21 00:43:32+0000,-38.60,-49.29,-31.59,-51.49,-52.31,-54.30
2021/10/21 00:44:24+0000,-39.38,-49.76,-31.73,-51.84,-52.86,-54.54
2021/10/21 00:45:16+0000,-39.25,-48.07,-32.04,-51.63,-52.50,-54.92
2021/10/21 00:46:08+0000,-39.66,-49.87,-32.05,-50.29,-53.08,-53.86
2021/10/21 00:47:00+0000,-38.36,-49.34,-32.05,-51.51,-52.24,-54.74
2021/10/21 00:47:52+0000,-37.76,-50.37,-31.70,-51.83,-51.52,-54.38
2021/10/21 00:48:44+0000,-38.52,-48.89,-31.76,-50.60,-51.90,-54.11
2021/10/21 00:49:36+0000,-38.66,-49.68,-31.60,-50.99,-51.84,-54.29
2021/10/21 00:50:29+0000,-39.80,-49.70,-31.78,-51.71,-51.72,-54.44
2021/10/21 00:51:27+0000,-38.22,-49.62,-32.30,-51.47,-52.23,-53.71
2021/10/21 00:52:19+0000,-39.80,-48.90,-32.16,-52.25,-52.34,-54.28
2021/10/21 00:53:11+0000,-39.20,-46.96,-31.95,-47.06,-52.19,-53.96
2021/10/21 00:54:03+0000,-39.80,-48.61,-31.23,-51.37,-52.37,-54.61
2021/10/21 00:54:55+0000,-38.78,-48.52,-32.13,-51.60,-52.91,-53.77
2021/10/21 00:55:48+0000,-38.04,-48.41,-31.88,-48.42,-52.22,-53.72
2021/10/21 00:56:40+0000,-38.92,-48.44,-32.05,-50.30,-52.59,-54.68
2021/10/21 00:57:32+0000,-38.10,-49.35,-32.70,-50.21,-52.89,-54.24
2021/10/21 00:58:24+0000,-38.40,-48.46,-31.81,-50.61,-51.91,-53.44
2021/10/21 00:59:16+0000,-37.88,-49.04,-32.47,-50.25,-51.55,-56.29
2021/10/21 01:00:08+0000,-38.72,-49.14,-31.30,-50.27,-52.06,-55.52
2021/10/21 01:01:14+0000,-39.43,-47.99,-32.32,-51.58,-52.50,-55.90
2021/10/21 01:02:06+0000,-37.27,-50.10,-31.06,-51.13,-51.56,-56.10
2021/10/21 01:02:58+0000,-38.34,-48.01,-31.76,-47.29,-52.04,-55.78
2021/10/21 01:03:50+0000,-36.21,-49.84,-31.62,-48.56,-51.82,-56.08
2021/10/21 01:04:42+0000,-39.23,-46.70,-31.85,-52.02,-51.93,-56.10
2021/10/21 01:05:34+0000,-38.79,-49.33,-31.87,-51.91,-52.03,-55.94
2021/10/21 01:06:26+0000,-36.75,-48.44,-32.27,-49.75,-51.68,-56.13
2021/10/21 01:07:18+0000,-35.33,-47.83,-32.36,-52.14,-51.61,-56.09
2021/10/21 01:08:11+0000,-37.37,-47.69,-31.44,-46.72,-51.46,-55.60
2021/10/21 01:09:03+0000,-38.23,-47.22,-31.95,-46.36,-51.83,-55.76
2021/10/21 01:09:55+0000,-34.71,-47.86,-32.48,-44.46,-51.86,-55.70
2021/10/21 01:10:47+0000,-35.80,-47.08,-32.02,-46.22,-51.61,-55.61
2021/10/21 01:12:01+0000,-38.27,-46.29,-31.90,-45.05,-51.59,-55.78
2021/10/21 01:12:53+0000,-33.41,-45.68,-31.71,-45.29,-52.13,-55.66
2021/10/21 01:13:45+0000,-37.47,-46.98,-32.58,-45.62,-52.21,-55.15
2021/10/21 01:14:37+0000,-37.87,-48.69,-31.60,-45.75,-51.99,-55.53
2021/10/21 01:15:29+0000,-37.78,-47.61,-31.60,-45.16,-52.59,-55.54
2021/10/21 01:16:21+0000,-35.77,-48.45,-32.02,-45.21,-52.05,-55.94
2021/10/21 01:17:13+0000,-38.77,-44.89,-31.44,-45.24,-52.37,-54.75
2021/10/21 01:18:05+0000,-38.80,-48.30,-32.38,-45.74,-52.08,-55.06
2021/10/21 01:18:57+0000,-36.45,-46.88,-32.12,-45.34,-51.78,-54.59
2021/10/21 01:19:49+0000,-35.59,-46.60,-31.55,-46.81,-51.94,-55.54
2021/10/21 01:20:41+0000,-37.72,-47.23,-32.28,-45.72,-52.36,-55.61
2021/10/21 01:21:40+0000,-38.28,-45.99,-32.32,-44.67,-52.14,-55.75
2021/10/21 01:22:32+0000,-36.41,-47.75,-32.43,-44.19,-52.09,-55.97
2021/10/21 01:23:24+0000,-33.89,-47.26,-31.86,-44.13,-52.20,-55.69
2021/10/21 01:24:16+0000,-35.54,-47.44,-32.18,-45.63,-52.71,-55.66
2021/10/21 01:25:08+0000,-38.07,-47.35,-31.52,-45.23,-52.11,-54.96
2021/10/21 01:26:00+0000,-39.22,-48.14,-32.07,-44.48,-52.20,-55.97
2021/10/21 01:26:52+0000,-36.42,-48.46,-32.30,-44.63,-51.36,-54.10
2021/10/21 01:27:44+0000,-38.36,-47.26,-32.50,-45.60,-52.16,-53.87
2021/10/21 01:28:36+0000,-37.32,-49.13,-32.04,-45.91,-51.86,-54.51
2021/10/21 01:29:28+0000,-34.94,-48.08,-32.23,-45.15,-52.24,-53.88
2021/10/21 01:30:21+0000,-36.07,-48.75,-32.70,-45.60,-52.20,-53.76
2021/10/21 01:31:20+0000,-34.17,-45.01,-31.37,-46.50,-51.60,-53.70
2021/10/21 01:32:12+0000,-37.18,-47.09,-31.29,-45.35,-52.21,-53.62
2021/10/21 01:33:04+0000,-37.71,-47.07,-32.57,-44.83,-52.01,-53.69
2021/10/21 01:33:56+0000,-38.52,-47.51,-31.43,-44.10,-52.24,-54.11
2021/10/21 01:34:48+0000,-38.05,-46.91,-32.78,-44.10,-52.63,-54.27
2021/10/21 01:35:40+0000,-37.28,-45.56,-32.71,-44.28,-52.16,-53.85
2021/10/21 01:36:32+0000,-37.04,-44.86,-32.14,-44.82,-52.46,-53.53
2021/10/21 01:37:24+0000,-36.88,-44.65,-32.13,-45.28,-52.05,-53.83
2021/10/21 01:38:16+0000,-37.25,-44.88,-32.09,-45.47,-52.07,-53.98
2021/10/21 01:39:08+0000,-37.36,-45.75,-32.09,-46.14,-52.24,-53.84
2021/10/21 01:40:00+0000,-38.81,-45.21,-32.57,-46.60,-52.08,-53.68
2021/10/21 01:40:59+0000,-37.11,-45.16,-32.38,-46.34,-51.76,-53.79
2021/10/21 01:41:51+0000,-37.62,-45.16,-32.44,-45.17,-52.37,-53.76
2021/10/21 01:42:43+0000,-38.48,-44.50,-32.71,-45.24,-52.07,-54.18
2021/10/21 01:43:35+0000,-38.29,-45.98,-31.98,-45.57,-52.37,-54.32
2021/10/21 01:44:27+0000,-38.22,-45.54,-31.98,-45.23,-52.26,-53.98
2021/10/21 01:45:19+0000,-38.36,-45.66,-32.31,-45.79,-52.02,-54.97
2021/10/21 01:46:11+0000,-36.97,-44.48,-32.18,-45.87,-52.84,-54.15
2021/10/21 01:47:03+0000,-38.07,-45.17,-32.31,-46.12,-52.55,-54.35
2021/10/21 01:47:55+0000,-36.53,-46.16,-31.82,-46.22,-52.04,-53.54
2021/10/21 01:48:47+0000,-38.12,-44.78,-31.70,-45.61,-52.21,-54.80
2021/10/21 01:49:39+0000,-38.04,-45.61,-32.30,-45.16,-52.17,-54.07
2021/10/21 01:50:32+0000,-37.80,-44.46,-32.57,-46.61,-52.03,-54.01
2021/10/21 01:51:35+0000,-38.43,-45.56,-32.21,-52.47,-52.36,-53.63
2021/10/21 01:52:28+0000,-35.94,-45.27,-32.17,-52.90,-52.34,-54.31
2021/10/21 01:53:20+0000,-36.69,-44.51,-32.35,-53.14,-52.14,-53.96
2021/10/21 01:54:12+0000,-38.47,-44.24,-32.28,-52.88,-52.32,-54.49
2021/10/21 01:55:04+0000,-38.04,-45.13,-31.87,-52.80,-52.66,-53.49
2021/10/21 01:55:56+0000,-38.00,-46.71,-32.14,-52.72,-52.37,-53.32
2021/10/21 01:56:48+0000,-36.57,-45.28,-31.90,-52.87,-52.06,-53.11
2021/10/21 01:57:40+0000,-39.03,-43.14,-32.01,-53.35,-52.48,-53.05
2021/10/21 01:58:32+0000,-38.37,-46.05,-32.33,-52.82,-52.68,-53.81
2021/10/21 01:59:24+0000,-38.06,-46.07,-32.07,-52.92,-51.95,-54.26
2021/10/21 02:00:16+0000,-38.24,-43.86,-32.22,-52.63,-52.58,-54.40
2021/10/21 02:01:20+0000,-35.20,-47.29,-32.17,-52.86,-52.48,-54.22
2021/10/21 02:02:12+0000,-39.13,-45.11,-32.37,-53.29,-52.90,-53.98
2021/10/21 02:03:04+0000,-38.36,-45.86,-32.21,-52.79,-52.75,-53.95
2021/10/21 02:03:56+0000,-39.13,-45.76,-32.20,-52.62,-52.47,-53.69
2021/10/21 02:04:48+0000,-38.62,-42.37,-32.51,-53.19,-52.58,-53.45
2021/10/21 02:05:40+0000,-38.24,-43.33,-32.10,-52.72,-52.36,-53.96
2021/10/21 02:06:32+0000,-38.52,-46.42,-32.14,-52.26,-52.33,-53.50
2021/10/21 02:07:24+0000,-37.29,-45.55,-32.25,-53.14,-52.30,-53.94
2021/10/21 02:08:16+0000,-37.16,-42.57,-32.06,-52.71,-52.90,-54.10
2021/10/21 02:09:08+0000,-38.85,-44.01,-31.70,-52.70,-51.69,-53.99
2021/10/21 02:10:01+0000,-38.24,-45.35,-31.85,-52.54,-52.34,-54.19
2021/10/21 02:10:59+0000,-38.73,-45.78,-32.92,-52.77,-52.68,-53.37
2021/10/21 02:11:51+0000,-34.87,-48.13,-32.38,-53.27,-52.30,-53.90
2021/10/21 02:12:44+0000,-39.14,-45.66,-32.38,-52.23,-51.99,-53.19
2021/10/21 02:13:36+0000,-39.85,-47.09,-32.06,-52.75,-52.47,-52.86
2021/10/21 02:14:28+0000,-35.43,-45.00,-31.99,-53.01,-52.02,-53.03
2021/10/21 02:15:20+0000,-35.81,-44.98,-32.05,-53.44,-51.60,-54.00
2021/10/21 02:16:12+0000,-38.88,-42.72,-32.29,-52.82,-52.53,-53.73
2021/10/21 02:17:04+0000,-38.70,-46.94,-32.07,-53.03,-52.06,-53.08
2021/10/21 02:17:56+0000,-33.77,-47.16,-32.74,-53.81,-51.70,-53.24
2021/10/21 02:18:48+0000,-33.52,-43.82,-32.57,-52.78,-52.02,-53.80
2021/10/21 02:19:40+0000,-37.87,-43.46,-32.67,-52.71,-52.19,-53.56
2021/10/21 02:20:32+0000,-38.97,-47.57,-32.45,-53.10,-51.98,-54.51
2021/10/21 02:21:31+0000,-38.25,-45.24,-32.22,-53.68,-51.93,-54.51
2021/10/21 02:22:23+0000,-35.74,-45.98,-31.94,-52.93,-52.16,-53.15
2021/10/21 02:23:15+0000,-37.19,-43.34,-32.15,-53.33,-51.79,-53.37
2021/10/21 02:24:07+0000,-38.48,-47.03,-32.78,-53.12,-52.09,-53.53
2021/10/21 02:24:59+0000,-38.25,-46.63,-32.06,-53.16,-51.74,-53.26
2021/10/21 02:25:51+0000,-33.14,-47.25,-32.18,-52.95,-52.66,-53.45
2021/10/21 02:26:43+0000,-38.61,-43.51,-32.28,-53.18,-51.53,-53.64
2021/10/21 02:27:35+0000,-38.34,-46.75,-32.77,-52.25,-52.04,-53.44
2021/10/21 02:28:27+0000,-33.47,-46.09,-32.61,-53.10,-52.65,-54.59
2021/10/21 02:29:19+0000,-34.74,-44.17,-32.33,-53.43,-52.26,-54.33
2021/10/21 02:30:11+0000,-37.55,-44.75,-31.96,-53.18,-52.51,-54.03
2021/10/21 02:31:16+0000,-36.88,-44.04,-31.93,-52.63,-52.33,-53.72
2021/10/21 02:32:08+0000,-37.03,-45.38,-32.72,-52.97,-52.11,-53.90
2021/10/21 02:33:00+0000,-36.85,-47.09,-31.63,-53.37,-52.20,-53.66
2021/10/21 02:33:52+0000,-34.68,-46.13,-31.80,-52.77,-52.08,-53.85
2021/10/21 02:34:44+0000,-37.47,-42.95,-32.37,-52.70,-52.24,-54.49
2021/10/21 02:35:36+0000,-37.88,-46.33,-32.20,-53.08,-52.82,-55.20
2021/10/21 02:36:28+0000,-33.00,-46.69,-32.01,-52.65,-52.72,-54.40
2021/10/21 02:37:20+0000,-34.26,-45.12,-32.18,-53.04,-52.19,-55.12
2021/10/21 02:38:12+0000,-37.01,-43.82,-31.94,-53.25,-52.97,-53.78
2021/10/21 02:39:04+0000,-37.74,-45.81,-31.79,-53.12,-52.34,-54.00
2021/10/21 02:39:57+0000,-32.11,-45.88,-32.54,-52.63,-52.17,-53.68
2021/10/21 02:40:49+0000,-31.75,-43.86,-32.33,-52.37,-52.64,-53.27
2021/10/21 02:41:57+0000,-32.04,-47.61,-32.31,-53.25,-52.39,-53.42
2021/10/21 02:42:49+0000,-32.58,-45.57,-32.01,-52.92,-52.30,-53.77
2021/10/21 02:43:41+0000,-36.77,-44.31,-32.10,-52.28,-52.45,-53.90
2021/10/21 02:44:33+0000,-36.85,-46.53,-32.29,-52.66,-52.66,-54.17
2021/10/21 02:45:25+0000,-33.04,-46.92,-31.90,-52.46,-52.61,-53.64
2021/10/21 02:46:17+0000,-32.73,-45.34,-31.69,-52.52,-52.33,-53.67
2021/10/21 02:47:09+0000,-37.78,-44.55,-32.23,-52.45,-52.55,-53.75
2021/10/21 02:48:01+0000,-38.48,-44.42,-31.97,-53.58,-52.85,-54.22
2021/10/21 02:48:54+0000,-34.85,-45.38,-31.78,-52.89,-51.64,-53.62
2021/10/21 02:49:46+0000,-38.13,-47.36,-32.33,-52.96,-52.84,-54.58
2021/10/21 02:50:38+0000,-38.94,-47.87,-32.68,-52.78,-52.31,-53.34
2021/10/21 02:51:37+0000,-37.95,-45.85,-32.34,-52.28,-52.37,-54.04
2021/10/21 02:52:29+0000,-37.29,-44.49,-32.05,-52.37,-52.16,-53.05
2021/10/21 02:53:21+0000,-37.52,-45.78,-32.64,-52.47,-52.58,-53.49
2021/10/21 02:54:13+0000,-39.46,-45.83,-32.14,-52.62,-52.64,-53.11
2021/10/21 02:55:05+0000,-39.33,-43.67,-32.05,-52.68,-52.29,-52.97
2021/10/21 02:55:57+0000,-32.94,-45.18,-32.51,-52.79,-52.11,-53.55
2021/10/21 02:56:49+0000,-37.65,-46.49,-31.85,-52.83,-52.60,-53.32
2021/10/21 02:57:41+0000,-38.82,-44.31,-32.46,-52.45,-52.42,-54.52
2021/10/21 02:58:33+0000,-36.97,-44.03,-32.20,-53.38,-52.90,-53.72
2021/10/21 02:59:25+0000,-37.59,-44.64,-32.11,-52.86,-52.00,-53.20
2021/10/21 03:00:17+0000,-38.63,-44.70,-31.78,-52.30,-52.24,-53.76
2021/10/21 03:01:16+0000,-38.60,-45.33,-32.66,-52.69,-52.03,-53.57
2021/10/21 03:02:08+0000,-38.27,-45.09,-31.59,-52.98,-52.20,-53.66
2021/10/21 03:03:00+0000,-40.00,-45.17,-32.39,-52.96,-52.20,-53.30
2021/10/21 03:03:52+0000,-37.73,-44.47,-32.03,-52.51,-52.02,-52.90
2021/10/21 03:04:44+0000,-39.03,-43.87,-32.48,-53.18,-51.71,-53.92
2021/10/21 03:05:36+0000,-40.65,-46.99,-31.90,-52.18,-52.69,-53.57
2021/10/21 03:06:28+0000,-39.71,-44.36,-32.39,-52.50,-52.07,-53.33
2021/10/21 03:07:20+0000,-38.24,-48.13,-31.86,-52.64,-52.29,-53.95
2021/10/21 03:08:13+0000,-39.20,-43.76,-31.63,-52.19,-52.09,-53.41
2021/10/21 03:09:05+0000,-38.69,-47.15,-31.81,-52.77,-52.36,-53.26
2021/10/21 03:09:57+0000,-37.71,-46.79,-31.96,-52.85,-52.27,-54.97
2021/10/21 03:10:49+0000,-38.54,-46.10,-31.99,-52.36,-52.46,-55.28
2021/10/21 03:11:52+0000,-36.99,-46.07,-31.69,-52.82,-52.67,-55.51
2021/10/21 03:12:44+0000,-38.42,-43.89,-32.02,-53.04,-52.01,-55.21
2021/10/21 03:13:36+0000,-37.29,-46.41,-32.19,-52.61,-52.21,-54.83
2021/10/21 03:14:29+0000,-37.62,-46.06,-31.91,-52.35,-51.98,-55.07
2021/10/21 03:15:21+0000,-37.42,-48.89,-31.81,-52.34,-51.97,-55.01
2021/10/21 03:16:13+0000,-38.72,-42.67,-32.07,-53.30,-52.24,-55.24
2021/10/21 03:17:05+0000,-36.54,-46.29,-32.26,-52.55,-52.32,-55.23
2021/10/21 03:17:57+0000,-35.49,-47.03,-32.39,-52.89,-51.64,-55.22
2021/10/21 03:18:49+0000,-36.81,-44.77,-32.55,-52.68,-52.22,-55.28
2021/10/21 03:19:41+0000,-37.82,-45.33,-32.17,-52.51,-52.18,-54.94
2021/10/21 03:20:33+0000,-37.78,-46.82,-31.88,-52.75,-52.14,-54.98
2021/10/21 03:21:31+0000,-37.35,-48.45,-32.18,-52.79,-52.25,-54.87
2021/10/21 03:22:23+0000,-35.73,-47.77,-31.89,-53.01,-51.97,-55.29
2021/10/21 03:23:15+0000,-36.54,-44.95,-32.20,-52.74,-51.68,-54.29
2021/10/21 03:24:07+0000,-38.00,-45.47,-32.66,-52.99,-51.66,-54.77
2021/10/21 03:24:59+0000,-38.51,-48.52,-32.40,-52.26,-51.76,-54.97
2021/10/21 03:25:52+0000,-36.12,-49.39,-32.00,-52.41,-51.74,-55.08
2021/10/21 03:26:44+0000,-36.93,-44.37,-32.59,-53.12,-52.39,-55.55
2021/10/21 03:27:36+0000,-37.85,-50.42,-32.55,-52.91,-51.89,-55.17
2021/10/21 03:28:28+0000,-36.88,-47.88,-32.14,-53.12,-52.21,-54.44
2021/10/21 03:29:20+0000,-35.54,-44.33,-32.45,-52.66,-52.52,-53.86
2021/10/21 03:30:12+0000,-37.37,-44.86,-32.12,-52.78,-53.13,-54.29
2021/10/21 03:31:15+0000,-37.54,-43.94,-32.26,-53.46,-52.36,-54.37
2021/10/21 03:32:07+0000,-37.54,-49.53,-32.67,-52.62,-52.08,-53.77
2021/10/21 03:32:59+0000,-37.49,-48.09,-32.21,-52.80,-51.87,-53.75
2021/10/21 03:33:51+0000,-36.35,-49.56,-31.38,-52.39,-52.34,-54.61
2021/10/21 03:34:43+0000,-38.92,-46.85,-32.05,-52.71,-51.45,-54.32
2021/10/21 03:35:35+0000,-35.84,-48.92,-32.12,-52.78,-52.51,-53.34
2021/10/21 03:36:27+0000,-36.36,-47.94,-31.75,-52.64,-52.29,-53.90
2021/10/21 03:37:19+0000,-36.44,-45.66,-31.84,-52.23,-52.03,-53.57
2021/10/21 03:38:11+0000,-37.05,-45.40,-31.86,-52.66,-52.39,-53.96
2021/10/21 03:39:03+0000,-37.16,-46.40,-32.01,-52.75,-52.41,-53.34
2021/10/21 03:39:56+0000,-36.87,-46.42,-31.76,-53.21,-51.74,-53.28
2021/10/21 03:40:48+0000,-35.78,-46.04,-31.99,-52.52,-52.19,-53.20
2021/10/21 03:41:47+0000,-37.38,-45.28,-32.49,-52.58,-52.31,-53.27
2021/10/21 03:42:39+0000,-37.22,-46.88,-31.87,-52.29,-52.41,-53.58
2021/10/21 03:43:31+0000,-37.21,-47.64,-32.02,-52.23,-51.89,-52.82
2021/10/21 03:44:23+0000,-36.88,-47.53,-31.82,-52.55,-52.24,-53.28
2021/10/21 03:45:15+0000,-37.51,-48.51,-31.84,-52.81,-51.93,-53.67
2021/10/21 03:46:07+0000,-36.56,-48.66,-32.04,-53.30,-51.98,-52.64
2021/10/21 03:46:59+0000,-37.75,-46.72,-32.09,-53.03,-52.19,-53.21
2021/10/21 03:47:51+0000,-36.84,-47.35,-31.86,-52.38,-51.43,-53.12
2021/10/21 03:48:43+0000,-37.32,-45.87,-31.83,-52.68,-52.26,-53.03
2021/10/21 03:49:35+0000,-36.63,-48.02,-31.98,-52.91,-52.23,-52.97
2021/10/21 03:50:27+0000,-36.25,-48.77,-31.97,-52.79,-51.86,-53.51
2021/10/21 03:51:31+0000,-36.85,-47.99,-32.42,-52.51,-52.36,-53.58
2021/10/21 03:52:23+0000,-36.81,-47.05,-32.30,-53.18,-52.04,-53.13
2021/10/21 03:53:15+0000,-37.55,-45.51,-31.99,-52.79,-52.21,-53.72
2021/10/21 03:54:07+0000,-36.44,-50.41,-32.25,-53.06,-51.38,-54.23
2021/10/21 03:54:59+0000,-36.14,-47.23,-32.30,-53.21,-51.68,-53.09
2021/10/21 03:55:51+0000,-39.03,-47.63,-31.97,-53.48,-52.01,-53.69
2021/10/21 03:56:43+0000,-37.55,-46.68,-31.86,-53.48,-51.51,-53.28
2021/10/21 03:57:35+0000,-37.82,-47.16,-32.52,-52.74,-51.74,-53.19
2021/10/21 03:58:27+0000,-38.78,-47.14,-31.50,-53.08,-52.06,-53.88
2021/10/21 03:59:19+0000,-38.09,-48.75,-32.29,-53.25,-52.36,-53.83
2021/10/21 04:00:11+0000,-35.88,-47.36,-32.65,-52.79,-52.59,-53.39
2021/10/21 04:01:11+0000,-36.81,-44.81,-32.48,-52.98,-52.32,-53.65
2021/10/21 04:02:03+0000,-38.34,-49.32,-32.48,-52.63,-52.54,-53.50
2021/10/21 04:02:55+0000,-38.31,-45.47,-32.42,-52.64,-52.16,-53.15
2021/10/21 04:03:47+0000,-38.39,-43.29,-32.52,-52.47,-52.14,-53.68
2021/10/21 04:04:39+0000,-38.71,-43.85,-32.64,-52.11,-52.08,-53.49
2021/10/21 04:05:31+0000,-37.93,-45.77,-32.56,-53.00,-52.09,-54.01
2021/10/21 04:06:23+0000,-39.37,-45.27,-32.62,-53.01,-52.59,-52.79
2021/10/21 04:07:15+0000,-38.81,-46.41,-32.45,-52.36,-52.25,-53.83
2021/10/21 04:08:07+0000,-36.75,-45.48,-32.53,-52.99,-51.98,-53.69
2021/10/21 04:08:59+0000,-38.97,-45.68,-32.94,-52.77,-51.84,-54.01
2021/10/21 04:09:52+0000,-38.30,-47.26,-33.11,-53.07,-51.92,-53.56
2021/10/21 04:10:44+0000,-38.33,-44.22,-32.65,-52.96,-52.26,-53.49
2021/10/21 04:11:42+0000,-38.16,-44.01,-33.01,-53.04,-52.11,-54.05
2021/10/21 04:12:34+0000,-38.48,-46.19,-32.09,-52.81,-51.87,-53.77
2021/10/21 04:13:26+0000,-38.52,-47.08,-32.64,-53.02,-52.21,-53.45
2021/10/21 04:14:18+0000,-38.18,-46.53,-32.55,-51.93,-51.44,-54.35
2021/10/21 04:15:10+0000,-38.29,-46.86,-32.31,-53.03,-51.78,-52.88
2021/10/21 04:16:02+0000,-39.00,-47.06,-33.02,-52.79,-51.84,-53.19
2021/10/21 04:16:54+0000,-37.72,-48.03,-32.64,-52.08,-52.29,-53.53
2021/10/21 04:17:46+0000,-37.15,-45.69,-32.71,-52.62,-51.89,-53.49
2021/10/21 04:18:38+0000,-40.13,-46.66,-32.16,-52.32,-51.96,-53.73
2021/10/21 04:19:30+0000,-37.85,-47.29,-32.12,-52.16,-51.83,-53.81
2021/10/21 04:20:23+0000,-37.15,-47.64,-32.65,-52.70,-52.00,-53.18
2021/10/21 04:21:21+0000,-36.75,-47.28,-32.07,-52.87,-51.68,-53.06
2021/10/21 04:22:13+0000,-38.03,-45.23,-32.36,-52.46,-52.24,-52.58
2021/10/21 04:23:05+0000,-37.87,-47.59,-32.29,-52.27,-52.08,-53.09
2021/10/21 04:23:57+0000,-39.25,-46.85,-32.64,-53.03,-52.69,-54.67
2021/10/21 04:24:49+0000,-36.90,-46.54,-32.20,-52.03,-52.12,-53.92
2021/10/21 04:25:41+0000,-37.99,-45.58,-32.40,-52.58,-51.73,-54.15
2021/10/21 04:26:33+0000,-39.38,-47.93,-33.08,-52.17,-52.08,-54.65
2021/10/21 04:27:25+0000,-37.90,-45.90,-32.21,-52.84,-52.28,-54.59
2021/10/21 04:28:17+0000,-38.47,-45.21,-32.45,-53.08,-52.15,-54.72
2021/10/21 04:29:09+0000,-37.91,-46.42,-32.58,-52.18,-51.99,-54.58
2021/10/21 04:30:02+0000,-39.03,-47.40,-32.64,-52.81,-51.90,-53.13
2021/10/21 04:31:10+0000,-37.81,-46.33,-32.55,-53.10,-52.59,-53.33
2021/10/21 04:32:02+0000,-37.81,-46.73,-32.17,-52.07,-52.49,-53.48
2021/10/21 04:32:55+0000,-37.37,-46.90,-33.08,-52.71,-52.26,-53.67
2021/10/21 04:33:47+0000,-38.80,-45.45,-33.01,-53.09,-52.52,-53.62
2021/10/21 04:34:39+0000,-37.63,-47.38,-32.45,-52.84,-51.58,-53.18
2021/10/21 04:35:31+0000,-38.32,-49.37,-33.04,-52.85,-51.77,-53.65
2021/10/21 04:36:23+0000,-37.14,-49.80,-32.78,-52.55,-51.99,-53.46
2021/10/21 04:37:15+0000,-37.87,-48.43,-32.62,-53.06,-51.98,-54.25
2021/10/21 04:38:07+0000,-39.10,-50.26,-32.29,-52.83,-52.25,-53.52
2021/10/21 04:38:59+0000,-39.12,-48.74,-32.79,-52.17,-52.18,-53.61
2021/10/21 04:39:51+0000,-38.24,-49.31,-32.11,-53.07,-51.72,-53.52
2021/10/21 04:40:43+0000,-38.55,-48.82,-31.70,-52.66,-51.59,-55.27
2021/10/21 04:41:41+0000,-40.05,-48.22,-32.17,-54.33,-51.97,-54.96
2021/10/21 04:42:33+0000,-39.39,-49.26,-31.98,-54.85,-52.05,-55.90
2021/10/21 04:43:25+0000,-37.29,-49.75,-32.21,-54.52,-52.19,-55.57